Location: Binningen
(47.7924°N, 8.7261°E)
Time: 20:46:46
(UTC+00:00)

ISS - Pass Details

Date: 17 May 2021
Orbit: 417 x 422 km, 51.6° (Epoch: 21 June)

Event Time Altitude Azimuth Distance (km) Brightness Sun altitude
Rises 21:39:27 0° 268° (W) 2,364 0.4 -18.9°
Reaches altitude 10° 21:41:36 10° 275° (W) 1,502 -0.6 -19.0°
Maximum altitude 21:44:52 46° 350° (N) 575 -2.7 -19.3°
Drops below altitude 10° 21:48:09 10° 66° (ENE) 1,507 -0.9 -19.5°
Enters shadow 21:49:56 - 72° (ENE) 2,221 -0.1 -19.6°
